[[{"header":{"parameterUnit":"m.s-1","parameterCategory":1,"la1":30.2991,"la2":30.254,"lo1":-89.0895,"lo2":-89.0444,"dy":0.0017,"dx":0.0017,"nx":28,"ny":28,"refTime":"2026-01-11T03:00:00:Z","depth":0,"parameterNumber":2,"parameterNumberName":"U-component_of_WINDS"},"data":[0,0,0,0,0,0,0,0,0,0,0,0,0,0,0,0,0,0,0,0,0,0,0,0,0,0,0,0,0,0,0,0,0,0,0,0,0,0,0,0,0,0,0,0,0,0,0,0,0,0,0,0,0,0,0,0,0,0,-3.3261,-3.3261,0,-3.3329,-3.333,-3.3331,-3.3261,-3.3258,-3.3255,-3.3253,-3.3325,-3.3329,-3.3334,0,0,0,0,0,0,0,0,0,0,0,0,0,-3.3071,-3.3074,-3.3261,-3.3262,-3.3262,-3.3329,-3.333,-3.3331,-3.3261,-3.3258,-3.3255,-3.3251,-3.3323,-3.3329,-3.3334,0,0,0,0,0,0,0,0,0,0,0,0,0,-3.3148,-3.3076,-3.3261,-3.3235,-3.3234,-3.3329,-3.333,-3.3331,-3.3262,-3.3258,-3.3254,-3.325,-3.3322,-3.3328,-3.3335,-3.3459,0,0,-3.3355,-3.3358,0,0,0,0,0,0,0,0,-3.3143,-3.3155,-3.3238,-3.3237,-3.3236,-3.3282,-3.329,-3.3374,-3.3263,-3.3251,-3.3253,-3.3248,-3.3314,-3.3321,-3.3343,-3.3462,-3.3465,-3.3356,-3.336,-3.3363,-3.3365,0,0,0,0,0,0,0,-3.3138,-3.3151,-3.3288,-3.324,-3.3238,-3.3221,-3.3228,-3.3305,-3.3305,-3.3252,-3.3247,-3.3256,-3.3313,-3.3337,-3.3344,-3.3466,-3.3356,-3.3362,-3.3366,-3.3368,-3.3691,-3.3695,0,0,0,0,0,0,-3.3135,-3.3147,-3.3286,-3.329,-3.3178,-3.3228,-3.3235,-3.3272,-3.3304,-3.3305,-3.326,-3.3253,-3.3327,-3.3337,-3.3347,-3.3494,-3.3363,-3.3369,-3.3373,-3.3686,-3.3692,-3.3697,0,0,0,0,0,0,-3.3131,-3.3148,-3.3283,-3.3217,-3.3233,-3.3236,-3.3277,-3.3275,-3.3299,-3.331,-3.3309,-3.3284,-3.3325,-3.3337,-3.3431,-3.3496,-3.3372,-3.3378,-3.3681,-3.3688,-3.3694,-3.3791,0,0,0,0,0,0,-3.3126,-3.3147,-3.3194,-3.3219,-3.3237,-3.3366,-3.3281,-3.3279,-3.3311,-3.3302,-3.3333,-3.3334,-3.3322,-3.3422,-3.3438,-3.3503,-3.3384,-3.3675,-3.3684,-3.3692,-3.3782,-3.38,-3.3815,0,0,0,0,0,-3.312,-3.3219,-3.3197,-3.3214,-3.3295,-3.337,-3.338,-3.3365,-3.3316,-3.3364,-3.337,-3.3333,-3.3486,-3.3432,-3.345,-3.3518,-3.3671,-3.3681,-3.3691,-3.3774,-3.3796,-3.3815,0,0,0,0,0,0,-3.3202,-3.3222,-3.3197,-3.3307,-3.3338,-3.3358,-3.3417,-3.3389,-3.3434,-3.3424,-3.3403,-3.341,-3.351,-3.3523,-3.3462,-3.3639,-3.3571,-3.3585,-3.3628,-3.3649,-3.3665,-3.366,-3.3389,0,0,0,0,0,-3.3233,-3.3291,-3.3305,-3.3401,-3.3417,-3.3415,-3.3447,-3.3432,-3.3463,-3.3475,-3.3489,-3.3521,-3.3576,-3.3613,-3.3664,-3.3783,-3.3789,-3.3838,-3.3855,-3.3869,-3.3882,-3.3946,-3.3969,-3.373,-3.373,-3.373,0,0,-3.3297,-3.3315,-3.3354,-3.3418,-3.344,-3.3502,-3.3426,-3.3495,-3.3541,-3.3486,-3.3576,-3.3587,-3.3621,-3.3728,-3.3776,-3.3742,-3.3949,-3.3882,-3.3893,-3.3898,-3.3959,-3.3982,-3.4002,-3.3737,-3.3736,-3.3735,0,0,-3.3447,-3.3466,-3.3548,-3.3571,-3.3604,-3.3602,-3.3622,-3.3647,-3.3652,-3.3742,-3.3702,-3.3757,-3.3852,-3.3878,-3.3904,-3.4063,-3.4031,-3.4081,-3.4169,-3.4232,-3.4251,-3.4268,-3.4325,-3.4346,-3.4093,-3.4093,-3.4094,0,-3.3523,-3.3614,-3.3594,-3.3665,-3.3695,-3.3648,-3.3731,-3.3755,-3.3804,-3.3826,-3.3787,-3.3906,-3.3925,-3.4038,-3.4077,-3.4099,-3.4122,-3.4077,-3.425,-3.4266,-3.4281,-3.4336,-3.4358,-3.4099,-3.4099,-3.4098,-3.4097,0,-3.3706,-3.377,-3.3832,-3.388,-3.3917,-3.3994,-3.3986,-3.4026,-3.4008,-3.401,-3.4102,-3.4124,-3.4179,-3.4205,-3.4188,-3.4316,-3.4294,-3.4253,-3.4183,-3.431,-3.4362,-3.4382,-3.4108,-3.4106,-3.4104,-3.4102,0,0,-3.391,-3.3946,-3.3969,-3.399,-3.4024,-3.4073,-3.4148,-3.4202,-3.4237,-3.4272,-3.4335,-3.4417,-3.4379,-3.4409,-3.4394,-3.4449,-3.4575,-3.4401,-3.4402,-3.4434,-3.4718,-3.475,-3.4774,-3.4554,-3.4557,-3.4561,-3.4716,0,-3.406,-3.419,-3.4175,-3.4299,-3.4359,-3.4314,-3.438,-3.4408,-3.4412,-3.4463,-3.4467,-3.4526,-3.4471,-3.4489,-3.4542,-3.4549,-3.4632,-3.4537,-3.4613,-3.4616,-3.4607,-3.4801,-3.4834,-3.498,-3.4736,-3.4739,-3.4741,0,-3.4254,-3.4296,-3.4427,-3.4451,-3.4476,-3.4535,-3.4583,-3.4632,-3.4663,-3.4662,-3.4695,-3.4671,-3.4747,-3.4675,-3.478,-3.4716,-3.4746,-3.4754,-3.476,-3.4767,-3.4687,-3.4814,-3.5026,-3.5048,-3.4773,-3.477,-3.4768,0,-3.4391,-3.448,-3.4569,-3.4589,-3.462,-3.4663,-3.4678,-3.4705,-3.4738,-3.478,-3.4802,-3.4852,-3.488,-3.492,-3.491,-3.4859,-3.5018,-3.4946,-3.502,-3.5021,-3.5057,-3.5055,-3.5277,-3.5075,-3.5074,-3.5074,-3.5073,0,-3.4561,-3.4643,-3.4631,-3.4687,-3.4777,-3.4758,-3.4849,-3.4858,-3.4883,-3.494,-3.4904,-3.4959,-3.4942,-3.4996,-3.4989,-3.5077,-3.509,-3.5092,-3.5089,-3.5096,-3.5096,-3.5116,-3.5106,-3.508,-3.5078,-3.5077,-3.5076,0,-3.4729,-3.4725,-3.482,-3.4841,-3.4848,-3.4915,-3.4933,-3.4985,-3.4986,-3.5059,-3.5075,-3.5077,-3.5138,-3.5132,-3.5201,-3.5196,-3.5306,-3.5291,-3.5296,-3.5293,-3.5368,-3.5361,-3.5612,-3.5644,-3.542,-3.5422,-3.5424,0,-3.4839,-3.4901,-3.4929,-3.4964,-3.4982,-3.504,-3.5073,-3.5057,-3.5094,-3.5134,-3.5182,-3.524,-3.5286,-3.5386,-3.5394,-3.5446,-3.5433,-3.5517,-3.5441,-3.5445,-3.5435,-3.5432,-3.5438,-3.5532,-3.5535,-3.5537,-3.5539,0,-3.5034,-3.5029,-3.5078,-3.5128,-3.5169,-3.5207,-3.5242,-3.5273,-3.526,-3.5303,-3.5365,-3.5401,-3.5471,-3.5529,-3.5579,-3.5595,-3.5566,-3.5562,-3.5582,-3.559,-3.5591,-3.5592,-3.5338,-3.5557,-3.5555,-3.5554,-3.5553,-3.5552,-3.5177,-3.523,-3.5258,-3.5315,-3.5339,-3.5372,-3.5423,-3.543,-3.5481,-3.5537,-3.5524,-3.5595,-3.5624,-3.5688,-3.5709,-3.5764,-3.5734,-3.5763,-3.5771,-3.5778,-3.5787,-3.5581,-3.5773,-3.5773,-3.5772,-3.5772,-3.5772,0,-3.5371,-3.5387,-3.5439,-3.5489,-3.5534,-3.5501,-3.5537,-3.5577,-3.5639,-3.5669,-3.5715,-3.5787,-3.5843,-3.5855,-3.5909,-3.5951,-3.5939,-3.5966,-3.5963,-3.5968,-3.5811,-3.5789,-3.5975,-3.5975,-3.5975,-3.5975,-3.5975,-3.5975,-3.5478,-3.5566,-3.5564,-3.5665,-3.568,-3.5748,-3.5772,-3.5802,-3.5826,-3.5908,-3.5954,-3.5962,-3.5985,-3.604,-3.6091,-3.6093,-3.6115,-3.6148,-3.6145,-3.5999,-3.5979,-3.5959,-3.5938,-3.6153,-3.6153,-3.6297,-3.6298,-3.6299]},{"header":{"parameterUnit":"m.s-1","parameterCategory":1,"la1":30.2991,"la2":30.254,"lo1":-89.0895,"lo2":-89.0444,"dy":0.0017,"dx":0.0017,"nx":28,"ny":28,"refTime":"2026-01-11T03:00:00:Z","depth":0,"parameterNumber":3,"parameterNumberName":"V-component_of_WINDS"},"data":[0,0,0,0,0,0,0,0,0,0,0,0,0,0,0,0,0,0,0,0,0,0,0,0,0,0,0,0,0,0,0,0,0,0,0,0,0,0,0,0,0,0,0,0,0,0,0,0,0,0,0,0,0,0,0,0,0,0,-4.3014,-4.3014,0,-4.3054,-4.3054,-4.3055,-4.3018,-4.3017,-4.3015,-4.3014,-4.3051,-4.3054,-4.3056,0,0,0,0,0,0,0,0,0,0,0,0,0,-4.2902,-4.2904,-4.3014,-4.3014,-4.3015,-4.3054,-4.3054,-4.3055,-4.3018,-4.3017,-4.3015,-4.3013,-4.3051,-4.3053,-4.3056,0,0,0,0,0,0,0,0,0,0,0,0,0,-4.2947,-4.2905,-4.3014,-4.3001,-4.3001,-4.3054,-4.3054,-4.3055,-4.3019,-4.3017,-4.3014,-4.3012,-4.305,-4.3053,-4.3057,-4.3123,0,0,-4.3068,-4.3069,0,0,0,0,0,0,0,0,-4.2945,-4.2951,-4.3003,-4.3002,-4.3002,-4.3029,-4.3029,-4.3077,-4.3019,-4.3012,-4.3014,-4.3011,-4.3045,-4.3049,-4.3061,-4.3124,-4.3126,-4.3068,-4.307,-4.3072,-4.3073,0,0,0,0,0,0,0,-4.2942,-4.2949,-4.3029,-4.3003,-4.3003,-4.2993,-4.2997,-4.3038,-4.304,-4.3012,-4.301,-4.3015,-4.3045,-4.3058,-4.3062,-4.3127,-4.3068,-4.3071,-4.3073,-4.3075,-4.3244,-4.3247,0,0,0,0,0,0,-4.294,-4.2947,-4.3028,-4.3031,-4.2967,-4.2996,-4.3001,-4.3022,-4.304,-4.3041,-4.3017,-4.3013,-4.3053,-4.3058,-4.3063,-4.3141,-4.3072,-4.3075,-4.3077,-4.3242,-4.3245,-4.3247,0,0,0,0,0,0,-4.2938,-4.2948,-4.3027,-4.2988,-4.2997,-4.3001,-4.3025,-4.3024,-4.3038,-4.3044,-4.3043,-4.3031,-4.3052,-4.3058,-4.3108,-4.3142,-4.3076,-4.308,-4.3239,-4.3243,-4.3246,-4.3297,0,0,0,0,0,0,-4.2935,-4.2947,-4.2973,-4.2989,-4.3,-4.3072,-4.3027,-4.3027,-4.3044,-4.304,-4.3056,-4.3057,-4.305,-4.3103,-4.3112,-4.3145,-4.3082,-4.3236,-4.3241,-4.3245,-4.3293,-4.3302,-4.331,0,0,0,0,0,-4.2931,-4.2986,-4.2975,-4.2985,-4.3032,-4.3074,-4.308,-4.3073,-4.3047,-4.3073,-4.3076,-4.3056,-4.3137,-4.3108,-4.3118,-4.3153,-4.3234,-4.3239,-4.3245,-4.3289,-4.33,-4.331,0,0,0,0,0,0,-4.2973,-4.2987,-4.2976,-4.3037,-4.3055,-4.3068,-4.31,-4.3085,-4.311,-4.3104,-4.3093,-4.3097,-4.315,-4.3156,-4.3125,-4.3217,-4.3181,-4.3188,-4.3211,-4.3222,-4.3231,-4.3228,-4.3085,0,0,0,0,0,-4.2989,-4.3023,-4.3034,-4.3087,-4.3096,-4.3097,-4.3115,-4.3108,-4.3125,-4.3132,-4.3139,-4.3156,-4.3184,-4.3204,-4.3231,-4.3293,-4.3296,-4.3322,-4.3331,-4.3338,-4.3345,-4.3377,-4.3389,-4.3265,-4.3265,-4.3265,0,0,-4.3023,-4.3035,-4.3057,-4.3095,-4.3108,-4.3142,-4.3103,-4.3141,-4.3166,-4.3137,-4.3185,-4.3191,-4.3208,-4.3265,-4.329,-4.3272,-4.338,-4.3345,-4.3351,-4.3353,-4.3384,-4.3396,-4.3406,-4.3269,-4.3268,-4.3267,0,0,-4.3103,-4.3116,-4.3161,-4.3175,-4.3195,-4.3195,-4.3206,-4.3222,-4.3225,-4.3273,-4.3252,-4.328,-4.3331,-4.3344,-4.3357,-4.3441,-4.3423,-4.345,-4.3496,-4.3528,-4.3538,-4.3547,-4.3576,-4.3587,-4.3457,-4.3457,-4.3457,0,-4.3142,-4.3194,-4.3186,-4.3226,-4.3243,-4.3219,-4.3264,-4.3278,-4.3305,-4.3317,-4.3296,-4.3359,-4.3369,-4.3428,-4.3448,-4.346,-4.3471,-4.3448,-4.3538,-4.3546,-4.3554,-4.3582,-4.3593,-4.346,-4.3459,-4.3459,-4.3459,0,-4.3241,-4.3277,-4.3311,-4.334,-4.336,-4.3402,-4.34,-4.3421,-4.3412,-4.3414,-4.3462,-4.3474,-4.3502,-4.3515,-4.3507,-4.3573,-4.3561,-4.3539,-4.3502,-4.3569,-4.3595,-4.3605,-4.3464,-4.3463,-4.3462,-4.3461,0,0,-4.3348,-4.3372,-4.3384,-4.3397,-4.3417,-4.3444,-4.3484,-4.3513,-4.3532,-4.3551,-4.3584,-4.3627,-4.3607,-4.3622,-4.3614,-4.3642,-4.3707,-4.3617,-4.3617,-4.3633,-4.378,-4.3796,-4.3808,-4.3696,-4.3698,-4.3699,-4.3778,0,-4.3428,-4.35,-4.3494,-4.3561,-4.3593,-4.3571,-4.3606,-4.3622,-4.3624,-4.3651,-4.3653,-4.3683,-4.3655,-4.3664,-4.3691,-4.3694,-4.3737,-4.3688,-4.3725,-4.3726,-4.3721,-4.3822,-4.3839,-4.3913,-4.3788,-4.379,-4.3791,0,-4.3531,-4.3555,-4.3626,-4.3641,-4.3654,-4.3686,-4.3712,-4.3738,-4.3755,-4.3754,-4.3771,-4.3759,-4.3798,-4.376,-4.3814,-4.3781,-4.3795,-4.3799,-4.3801,-4.3804,-4.3763,-4.3827,-4.3937,-4.3948,-4.3807,-4.3806,-4.3805,0,-4.3601,-4.3651,-4.37,-4.3711,-4.373,-4.3753,-4.3761,-4.3776,-4.3793,-4.3815,-4.3826,-4.3852,-4.3866,-4.3886,-4.388,-4.3854,-4.3934,-4.3897,-4.3934,-4.3934,-4.3952,-4.3951,-4.4065,-4.3962,-4.3962,-4.3962,-4.3962,0,-4.3691,-4.3735,-4.3732,-4.3762,-4.381,-4.3802,-4.3849,-4.3855,-4.3868,-4.3897,-4.3879,-4.3907,-4.3898,-4.3925,-4.3921,-4.3965,-4.3971,-4.3971,-4.3969,-4.3973,-4.3973,-4.3982,-4.3976,-4.3965,-4.3964,-4.3964,-4.3963,0,-4.3777,-4.3777,-4.3829,-4.3843,-4.3847,-4.3882,-4.3893,-4.392,-4.3921,-4.3959,-4.3967,-4.3968,-4.3999,-4.3995,-4.4029,-4.4026,-4.4081,-4.4073,-4.4076,-4.4074,-4.4111,-4.4107,-4.4235,-4.4251,-4.4138,-4.4139,-4.414,0,-4.3835,-4.3868,-4.3885,-4.3905,-4.3915,-4.3946,-4.3964,-4.3957,-4.3976,-4.3997,-4.4022,-4.4051,-4.4074,-4.4124,-4.4127,-4.4153,-4.4145,-4.4188,-4.4149,-4.4151,-4.4145,-4.4143,-4.4146,-4.4196,-4.4197,-4.4198,-4.4199,0,-4.3936,-4.3934,-4.3961,-4.3989,-4.4011,-4.4032,-4.4051,-4.4067,-4.4061,-4.4084,-4.4115,-4.4134,-4.4169,-4.4197,-4.4222,-4.4229,-4.4213,-4.4211,-4.4221,-4.4225,-4.4225,-4.4225,-4.4096,-4.4208,-4.4207,-4.4207,-4.4206,-4.4206,-4.4009,-4.4037,-4.4054,-4.4085,-4.4098,-4.4116,-4.4143,-4.4147,-4.4174,-4.4203,-4.4196,-4.4232,-4.4247,-4.4278,-4.4287,-4.4314,-4.4298,-4.4313,-4.4317,-4.432,-4.4324,-4.4221,-4.4319,-4.4318,-4.4318,-4.4318,-4.4318,0,-4.4108,-4.4118,-4.4147,-4.4174,-4.4198,-4.4182,-4.4202,-4.4222,-4.4254,-4.427,-4.4293,-4.4329,-4.4357,-4.4362,-4.4388,-4.4409,-4.4402,-4.4416,-4.4414,-4.4416,-4.4337,-4.4326,-4.4421,-4.4421,-4.4421,-4.4421,-4.4421,-4.4421,-4.4163,-4.421,-4.421,-4.4264,-4.4272,-4.4308,-4.4321,-4.4337,-4.4349,-4.4391,-4.4414,-4.4418,-4.4429,-4.4455,-4.448,-4.448,-4.4491,-4.4507,-4.4505,-4.4432,-4.4421,-4.4412,-4.4401,-4.451,-4.451,-4.4581,-4.4582,-4.4582]}]]